SCP
0 0 0 0 0 0 0 0 0 0 0 0 0 0 0 0 0 0 0 0 0 0 0 0 0 0 0 0 0 0 0 0 0 0 0 0 0 0 0 0 0 0 0 0
0 0 0 0 0 0 0 0 0 0 0 0 0 0 0 0 0 0 0 0 0 0 0 0 0 0 0 0 0 0 0 0 0 0 0 0 0 0 0 0 0 0 0 0
0 0 0 0 0 0 0 0 0 0 0 0 0 0 0 0 0 0 0 0 0 0 0 0 0 0 0 0 0 0 0 0 0 0 0 0 0 0 0 0 0 0 0 0
0 0 0 0 0 0 0 0 0 0 0 0 0 -0 0 0 0 0 0 0 0 0 0 0 0 0 0 0 0 0 0 0 0 0 0 0 0 0 0 0 0 0 0 0
0 0 0 0 0 0 0 0 0 0 0 0 0 0 0 0 0 0 0 0 0 0 0 0 0 0 0 0 0 0 0 0 0 0 0 0 0 0 0 0 0 0 0 0
0 0 0 0 0 0 0 0 0 0 0 0 0 0 0 0 0 0 0 0 0 0 0 0 0 0 0 0 0 0 0 0 0 0 0 0 0 0 0 0 0 0 0 0
0 0 0 0 0 0 0 0 0 0 0 0 0 0 0 0 0 0 0 0 0 0 0 0 0 0 0 0 0 0 0 0 0 0 0 0 0 0 0 0 0 0 0 0
0 0 0 0 0 0 0 0 0 0 0 0 0 0 0 0 0 0 0 0 0 0 0 0 0 0 0 0 0 0 -0 -0 0 0 0 0 0 0 0 0 0 0 0 0
0 0 0 0 0 0 0 0 0 0 0 0 0 0 0 0 0 0 0 0 0 0 0 0 0 0 0 0 0 0 0 -0 0 0 0 0 0 0 0 0 0 0 0 0
0 0 0 0 0 0 0 0 0 0 0 -0 0 0 0 0 0 0 0 0 0 0 0 0 0 0 0 0 0 0 0 0 0 0 0 0 0 0 0 0 0 0 0 0
0 0 0 0 0 0 0 0 0 0 0 0 0 0 0 0 0 0 0 0 0 0 0 0 0 0 0 0 0 0 0 0 0 0 0 0 0 0 0 0 0 0 0 0
0 0 0 0 0 0 0 0 0 0 0 0 0 0 0 0 0 0 0 0 0 0 0 0 0 0 0 0 0 0 0 0 0 0 0 0 0 0 0 0 0 0 0 0
0 0 0 0 0 0 0 0 0 0 0 0 0 0 0 0 0 0 0 0 0 0 0 0 0 0 0 0 0 0 0 0 0 0 0 0 0 0 0 0 0 0 0 0
0 0 0 0 0 0 0 -0 0 0 0 0 0 0 0 0 0 0 0 0 0 0 0 0 0 0 0 0 0 0 0 0 0 0 0 0 0 0 0 0 0 0 0 0
0 0 0 0 0 0 0 0 0 0 0 0 0 0 0 0 0 0 0 0 0 0 0 0 0 0 0 0 0 0 0 0 0 0 0 0 0 0 0 0 0 0 0 0
0 0 0 -0 0 0 0 0 0 0 0 0 0 0 0 0 0 0 0 0 0 0 0 0 0 0 0 0 0 0 0 0 0 0 0 0 0 0 0 0 0 0 0 0
0 0 -0 -0 0 0 0 0 -0 0 0 0 0 0 0 0 0 0 0 0 0 0 0 0 0 0 0 0 0 0 0 0 0 0 0 0 0 0 0 0 0 0 0 0
0 0 -0 -0 0 0 0 0 0 0 0 0 0 0 0 0 0 0 0 0 0 0 0 0 0 0 0 0 0 0 0 0 0 0 0 0 0 0 0 0 0 0 0 0
0 0 0 0 0 0 0 0 0 0 0 0 0 0 0 0 0 0 0 0 0 0 0 0 0 0 0 0 0 0 0 0 0 0 0 0 0 0 0 0 0 0 0 0
0 0 0 0 0 0 0 0 0 0 0 0 0 0 0 0 0 0 0 0 0 0 0 0 0 0 0 0 0 0 0 0 0 0 0 0 0 0 0 0 0 0 0 0
0 0 0 0 0 0 0 0 0 0 0 0 0 0 0 0 0 0 0 0 0 0 0 0 0 0 0 0 0 0 0 0 0 0 0 0 0 0 0 0 0 0 0 0
0 0 0 0 0 0 0 0 0 0 0 0 0 0 0 0 0 0 0 0 0 0 0 0 0 0 0 0 0 0 0 0 0 0 0 0 0 0 0 0 0 0 0 0
0 0 0 0 0 0 0 0 0 0 0 0 0 0 0 0 0 0 0 0 0 0 0 0 0 0 0 0 0 0 0 0 0 0 0 0 0 0 0 0 0 0 0 0
0 0 0 0 0 0 0 0 0 0 0 0 0 0 0 0 0 0 0 0 0 0 0 0 0 0 0 0 0 0 0 0 0 0 0 0 0 0 0 0 0 0 0 0
0 0 0 0 0 0 0 0 0 0 0 0 0 0 0 0 0 0 0 0 0 0 0 0 0 0 0 0 0 0 0 0 0 0 0 0 0 0 0 0 0 0 0 0
0 0 0 0 0 0 0 0 0 0 0 0 0 0 0 0 0 -0 -0 -0 -0 -0 -0 -0 0 0 0 0 0 0 0 0 0 0 0 0 0 0 0 0 0 0 0 0
0 0 0 0 0 0 0 0 0 0 0 0 0 0 0 -0 -0 -0 -0 -0 -0 -0 -0 -0 -0 0 0 0 0 0 0 0 0 0 0 0 0 0 0 0 0 0 0 0
Wind_Speed
5 5 2 4 4 4 6 7 8 8 8 9 7 6 4 3 3 4 4 5 6 6 5 4 4 4 4 4 4 4 5 5 5 4 3 2 2 2 2 2 2 2 2 1
3 2 2 4 5 5 6 5 6 5 8 7 5 2 2 3 4 5 6 6 6 5 5 5 5 5 4 4 4 4 5 4 4 3 3 3 3 2 2 2 2 2 2 2
3 4 3 5 5 6 5 5 6 8 9 4 2 3 4 4 5 6 6 6 6 6 6 6 6 6 6 5 4 4 4 4 4 4 3 3 3 3 3 2 2 2 1 2
1 1 5 6 2 3 4 4 4 4 4 3 4 3 2 2 4 5 4 4 5 5 4 4 4 4 4 4 4 4 4 4 3 4 4 3 3 3 3 2 2 2 2 2
2 2 6 5 2 2 3 4 2 3 3 1 1 2 3 1 3 4 4 4 4 4 3 3 4 4 4 4 4 4 4 4 4 4 4 4 4 3 2 2 2 2 2 2
3 3 5 4 4 3 1 4 3 1 2 0 2 1 4 2 2 2 1 2 3 3 3 3 3 4 5 4 4 4 4 4 3 4 4 4 4 3 2 2 2 2 1 2
4 4 6 5 5 1 2 5 4 1 1 2 3 4 3 0 1 2 2 2 3 4 4 3 4 5 5 4 4 4 3 3 3 3 3 3 2 2 2 2 2 1 1 1
3 3 7 3 2 2 4 3 2 1 1 1 2 2 1 0 1 2 3 3 3 4 3 2 4 5 4 3 3 2 3 3 2 2 2 2 3 2 2 3 2 2 1 1
6 6 4 2 3 3 2 2 3 2 2 1 1 1 1 0 1 1 2 2 3 4 3 2 3 4 4 3 2 3 3 2 2 2 1 2 3 3 2 2 2 2 2 2
4 6 4 4 4 4 3 3 3 2 2 1 1 1 1 1 1 1 1 2 2 4 3 2 2 2 3 2 3 3 3 2 2 2 2 1 2 2 2 2 2 2 2 2
5 7 6 5 4 4 4 3 4 3 2 1 1 2 2 2 2 2 2 2 2 3 4 3 3 2 2 2 3 3 3 2 2 2 3 2 2 2 3 3 4 4 3 3
7 6 5 6 5 5 4 5 4 4 3 2 2 3 2 2 2 3 3 2 2 2 3 2 2 2 2 3 4 4 3 2 2 2 2 2 2 0 1 2 3 3 3 3
8 7 6 7 7 5 5 6 5 4 4 3 3 3 3 2 2 3 3 3 4 3 3 3 3 3 2 3 3 4 4 3 3 3 3 3 2 2 1 1 1 1 2 3
5 4 6 7 7 6 6 5 4 3 3 3 3 2 2 2 2 3 4 4 3 3 3 3 3 3 3 3 3 3 3 4 3 3 3 3 3 2 2 2 1 1 2 2
6 6 7 7 6 6 4 3 3 3 3 3 3 2 3 3 3 4 3 2 3 3 3 3 3 3 3 3 3 3 3 2 3 2 2 2 2 2 2 2 2 2 1 1
6 4 4 4 5 5 4 4 4 5 4 4 3 4 4 4 3 3 2 3 4 4 4 4 4 4 3 3 3 3 3 4 3 2 2 2 2 2 2 2 2 2 2 2
5 5 5 5 6 6 6 6 6 5 5 5 4 4 3 2 2 2 2 3 4 4 4 4 4 3 4 4 4 3 2 3 4 2 2 3 3 3 3 2 3 3 3 3
6 7 7 6 6 6 6 5 5 5 5 5 4 3 4 4 5 4 4 3 2 2 3 3 3 3 3 4 4 3 3 3 3 3 3 3 2 2 2 3 3 3 2 2
5 5 5 5 6 6 5 5 5 5 4 4 3 4 4 4 4 4 3 3 3 4 4 3 5 4 4 5 4 3 3 3 3 2 2 3 3 2 2 2 3 3 2 2
4 4 3 4 4 4 5 4 4 3 3 3 3 3 3 3 3 3 3 3 4 4 3 3 3 3 4 5 5 3 4 4 3 3 2 2 3 3 2 2 2 2 2 2
4 3 2 3 3 4 4 3 3 4 3 3 4 4 4 3 3 3 3 2 3 2 3 4 3 3 3 4 5 3 3 3 3 3 3 3 2 2 2 2 2 2 2 2
4 3 3 2 2 3 3 2 3 3 3 2 3 3 2 2 2 2 2 3 3 3 2 2 2 3 4 4 3 3 3 3 3 2 2 2 2 2 2 2 2 2 2 2
4 3 3 3 3 3 3 2 2 2 3 3 3 3 3 2 2 2 2 2 2 3 2 2 3 4 4 3 3 3 3 3 3 3 3 2 2 2 2 2 2 2 2 2
4 3 3 3 2 1 2 2 2 1 2 2 2 3 3 2 1 1 1 2 3 2 2 3 3 3 3 2 2 3 3 3 3 2 2 2 2 2 2 2 2 1 1 2
3 3 3 2 2 2 2 1 0 0 1 0 0 1 1 2 2 1 1 1 2 1 1 2 3 3 2 2 3 3 3 3 3 2 2 2 2 2 2 2 2 2 1 2
3 3 3 2 2 2 1 1 1 1 1 0 1 1 0 1 1 1 1 1 1 1 1 1 1 2 2 2 2 2 2 2 2 2 2 2 2 2 2 2 2 2 2 2
3 2 1 1 1 1 1 1 1 1 1 1 1 1 0 0 0 1 1 0 0 0 1 1 1 1 2 2 2 2 2 2 2 2 2 2 2 2 2 2 2 2 2 2
Wind_Direction
251 260 237 237 239 205 198 199 206 232 231 250 252 241 233 209 176 162 171 178 185 190 189 183 180 180 180 182 178 174 171 177 189 185 175 167 169 172 169 169 172 169 165 173
294 287 254 266 262 236 228 223 226 242 259 253 254 224 212 201 182 187 195 198 197 192 186 188 189 187 182 183 180 169 174 186 179 165 166 171 175 169 163 167 159 152 172 183
270 295 330 277 246 223 225 219 200 226 248 253 232 218 218 217 204 203 204 201 196 194 192 193 194 185 186 185 167 162 174 179 175 171 175 184 175 166 178 181 166 176 200 192
231 357 244 249 237 213 226 250 236 246 263 242 225 235 230 204 200 208 203 198 197 192 189 187 176 170 164 153 156 163 168 176 180 175 177 174 171 183 192 184 182 198 209 210
155 231 271 291 294 220 220 271 267 245 272 299 3 32 333 265 196 203 201 195 189 183 174 162 160 159 148 146 148 159 179 188 188 180 179 179 188 196 192 178 189 206 210 209
155 202 241 256 286 287 160 283 314 267 240 234 79 60 274 274 185 189 172 160 152 138 128 140 151 146 146 157 162 185 198 195 186 181 185 191 197 196 190 184 201 201 211 222
189 225 260 275 296 49 156 260 310 284 217 167 202 227 252 267 165 154 143 133 129 129 138 155 148 143 152 167 193 203 187 175 176 180 187 188 183 186 172 171 169 184 212 250
169 209 254 299 54 155 232 280 310 305 268 220 246 296 320 149 153 135 123 120 128 134 142 144 144 146 157 190 209 179 160 161 173 178 184 169 160 167 163 164 170 188 200 273
196 217 248 251 234 252 242 273 287 281 282 213 249 285 286 245 171 150 139 140 143 147 146 146 160 160 168 196 173 154 146 160 170 166 169 165 167 171 167 168 178 199 198 227
261 270 266 262 268 288 275 265 276 272 277 208 218 253 259 232 189 155 145 151 149 146 153 179 193 188 183 178 161 155 162 172 169 161 156 151 162 172 175 183 191 202 209 219
266 281 302 296 287 298 307 310 310 310 290 239 216 251 233 221 210 190 176 168 165 170 181 199 193 193 188 173 158 160 171 178 173 171 168 167 176 191 196 212 202 201 211 205
242 247 243 266 279 288 289 290 286 283 290 291 233 234 228 218 209 188 181 178 177 186 193 201 190 198 204 187 170 165 170 179 179 175 174 172 168 198 252 230 231 229 221 219
247 260 254 268 280 271 263 270 272 257 246 259 262 231 212 224 210 187 179 180 187 193 191 185 184 197 205 186 170 170 179 187 184 184 181 179 176 176 212 314 297 251 230 229
252 262 271 271 271 274 270 270 265 255 253 248 251 249 221 220 215 202 206 203 190 180 177 180 186 205 204 183 174 177 182 198 195 189 184 182 187 193 192 198 244 295 283 239
263 253 250 265 275 279 280 275 266 257 247 250 243 228 210 210 217 226 225 201 171 171 187 192 196 213 201 181 178 184 185 191 188 180 177 177 184 190 198 204 213 234 280 284
267 268 260 263 266 272 276 269 255 254 247 238 237 228 218 218 219 215 203 185 180 196 204 201 210 213 192 179 178 184 192 198 183 170 170 176 182 189 203 210 216 220 229 244
251 258 258 261 262 262 258 252 244 244 249 244 236 222 203 197 204 214 219 212 210 216 211 206 214 209 192 185 181 183 182 192 189 179 184 188 192 200 208 210 216 225 233 228
241 243 244 243 249 255 259 255 246 241 242 243 232 209 198 198 207 216 219 212 207 238 239 222 212 196 191 190 184 177 175 181 185 188 191 195 200 203 205 209 217 226 241 241
257 253 257 262 261 252 247 246 245 243 240 227 209 213 217 215 214 216 205 193 199 228 243 226 211 194 194 198 182 173 176 183 190 194 193 200 201 199 203 210 216 223 226 226
277 264 260 270 270 256 250 247 242 243 236 217 204 206 218 221 210 199 191 208 222 223 218 213 204 200 197 195 185 175 181 187 190 190 192 199 203 205 209 213 216 222 227 229
283 273 274 280 286 281 261 241 229 233 234 212 202 212 220 223 203 183 181 229 257 226 208 209 199 202 194 186 184 176 181 185 186 190 196 203 207 207 207 213 217 223 228 232
290 274 274 279 287 294 285 257 231 222 215 209 205 201 192 201 197 192 214 225 232 219 204 205 210 203 190 181 175 174 181 184 188 190 194 201 203 205 208 212 220 228 236 240
297 284 276 270 265 274 287 272 240 210 197 199 199 194 194 202 194 186 233 244 212 203 201 211 214 203 188 172 169 175 181 184 189 192 196 200 201 201 204 212 220 224 233 241
301 290 284 287 297 294 288 286 273 231 201 199 196 185 177 181 244 253 227 224 222 212 208 206 203 197 176 163 169 176 182 187 191 190 187 191 196 200 205 210 218 224 228 240
294 288 285 291 288 271 260 265 304 91 112 112 136 152 179 181 188 213 211 214 211 204 208 212 206 195 170 167 174 181 185 192 190 181 184 192 200 202 205 209 212 219 228 238
288 280 271 261 254 257 257 224 207 197 150 120 351 352 35 76 126 149 155 188 196 209 211 204 196 190 173 171 174 178 182 190 192 188 192 199 201 201 203 207 213 219 229 236
290 285 288 307 305 265 224 202 197 212 196 175 203 289 351 101 138 144 156 177 177 197 210 197 176 169 168 166 166 166 166 168 175 182 187 196 201 205 209 211 215 220 225 232